Content
SEND FEEDBACK

Daily
Averages
Monthly
Summary
Mexico

CANCUN, QUINTANA ROO


Home > North America > Mexico > Quintana Roo
Elevation: 9 meters     Latitude: 21 09N     Longitude: 086 49W

WEATHER
 
SELECT A DAY
Number of Records: 163,905;   Date Range: 1/1/95 - 8/10/14
 
SHARE

PRINT THIS DATA

[ ← Previous Day ]
WEATHER ALMANAC - 19 MAY, 2013
[ Next Day → ]
[ °F ]   °C
Weather ElementAverageHighLow
Temperature28.4 °C31 °C (10:42 am)27 °C (1:46 am)
Dewpoint23.6 °C24 °C (1:46 am)23 °C (5:45 am)
Humidity75.7 %84 % (1:46 am)62 % (2:44 pm)
Barometer1014.2 hPa1015.9 hPa (9:42 am)1012.9 hPa (4:43 pm)
Wind Speed19.2 km/h29.6 km/h (11:41 am)
Weather ElementAverage
Visibility11.3 km
Wind DirectionESE (125.2 °)

Weather ElementTotal
Precipitation---
Cooling Degree Days10.7 (Base 18.3)
Growing Degree Days19 (Base 10)
Averaged from 23 records on 19 May, 2013
WEATHER CONDITIONS BREAKOUT
WIND DIRECTION BREAKOUT
WEATHER BY HOUR - 19 MAY, 2013
[ °F ]   °C
Local TimeTemperatureDewpointHumidityBarometerVisibilityWind DirectionWind SpeedGust SpeedPrecipitationEventsConditions
1:46 AM27 °C24 °C84 %1014.2 hPa11.3 kmESE (120°)14.8 km/hMostly Cloudy
2:40 AM27 °C24 °C84 %1013.9 hPa11.3 kmESE (120°)14.8 km/hScattered Clouds
3:40 AM27 °C24 °C84 %1013.5 hPa11.3 kmESE (120°)13 km/hScattered Clouds
4:45 AM27 °C24 °C84 %1013.9 hPa11.3 kmSE (130°)11.1 km/hScattered Clouds
5:45 AM27 °C23 °C79 %1013.9 hPa11.3 kmESE (120°)13 km/hMostly Cloudy
6:47 AM27 °C23 °C79 %1014.2 hPa11.3 kmESE (120°)11.1 km/hMostly Cloudy
7:44 AM28 °C23 °C74 %1014.9 hPa11.3 kmSE (130°)18.5 km/hMostly Cloudy
8:41 AM29 °C23 °C70 %1015.6 hPa11.3 kmSE (140°)22.2 km/hMostly Cloudy
9:42 AM30 °C23 °C66 %1015.9 hPa11.3 kmSE (140°)22.2 km/hMostly Cloudy
10:42 AM31 °C24 °C66 %1015.6 hPa11.3 kmSE (130°)22.2 km/hMostly Cloudy
11:41 AM30 °C23 °C66 %1015.6 hPa11.3 kmESE (110°)29.6 km/hMostly Cloudy
12:46 PM30 °C23 °C66 %1014.9 hPa11.3 kmSE (140°)22.2 km/hMostly Cloudy
1:42 PM31 °C24 °C66 %1014.6 hPa11.3 kmSE (130°)25.9 km/hMostly Cloudy
2:44 PM31 °C23 °C62 %1013.9 hPa11.3 kmSE (130°)24.1 km/hMostly Cloudy
3:47 PM29 °C23 °C70 %1013.5 hPa11.3 kmSE (130°)24.1 km/hMostly Cloudy
4:43 PM29 °C24 °C74 %1012.9 hPa11.3 kmESE (120°)24.1 km/hMostly Cloudy
5:42 PM29 °C24 °C74 %1012.9 hPa11.3 kmESE (110°)16.7 km/hMostly Cloudy
6:43 PM28 °C24 °C79 %1013.5 hPa11.3 kmESE (120°)25.9 km/hScattered Clouds
7:43 PM28 °C24 °C79 %1013.2 hPa11.3 kmSE (130°)20.4 km/hScattered Clouds
8:41 PM27 °C24 °C84 %1013.9 hPa11.3 kmESE (110°)16.7 km/hPartly Cloudy
9:48 PM27 °C24 °C84 %1013.2 hPa11.3 kmSE (130°)13 km/hPartly Cloudy
10:47 PM27 °C24 °C84 %1014.9 hPa11.3 kmSE (130°)18.5 km/hScattered Clouds
11:46 PM27 °C24 °C84 %1014.9 hPa11.3 kmESE (120°)16.7 km/hScattered Clouds
Hourly data recorded from MMUN, located 0 kilometers away from Cancun, Quintana Roo







STORIES FROM OUR PARTNERS